Time,TemperatureF,DewpointF,PressureIn,WindDirection,WindDirectionDegrees,WindSpeedMPH,WindSpeedGustMPH,Humidity,HourlyPrecipIn,Conditions,Clouds,dailyrainin,SoftwareType,DateUTC
2013-06-10 00:03:00,49.6,36.7,29.75,WNW,298,0.0,0.0,61,0.00,,,0.00,meteohub,2013-06-10 07:03:00,
2013-06-10 00:08:00,49.3,36.3,29.75,WNW,298,0.0,0.0,61,0.00,,,0.00,meteohub,2013-06-10 07:08:00,
2013-06-10 00:13:00,48.9,36.5,29.75,WNW,298,0.0,0.0,62,0.00,,,0.00,meteohub,2013-06-10 07:13:00,
2013-06-10 00:18:00,48.4,36.0,29.75,WNW,298,0.0,0.0,62,0.00,,,0.00,meteohub,2013-06-10 07:18:00,
2013-06-10 00:24:00,48.0,36.0,29.75,WNW,298,0.0,0.0,63,0.00,,,0.00,meteohub,2013-06-10 07:24:00,
2013-06-10 00:29:00,47.7,36.1,29.75,WNW,298,0.0,0.0,64,0.00,,,0.00,meteohub,2013-06-10 07:29:00,
2013-06-10 00:34:00,47.5,36.0,29.75,WNW,298,0.0,0.0,64,0.00,,,0.00,meteohub,2013-06-10 07:34:00,
2013-06-10 00:39:00,47.3,36.5,29.75,WNW,298,0.0,0.0,66,0.00,,,0.00,meteohub,2013-06-10 07:39:00,
2013-06-10 00:44:00,47.1,36.0,29.74,WNW,298,0.0,0.0,65,0.00,,,0.00,meteohub,2013-06-10 07:44:00,
2013-06-10 00:49:00,46.8,36.0,29.74,WNW,298,0.0,0.0,66,0.00,,,0.00,meteohub,2013-06-10 07:49:00,
2013-06-10 00:54:00,46.4,36.0,29.74,WNW,298,0.0,0.0,67,0.00,,,0.00,meteohub,2013-06-10 07:54:00,
2013-06-10 01:00:00,46.0,36.1,29.74,WNW,298,0.0,0.0,68,0.00,,,0.00,meteohub,2013-06-10 08:00:00,
2013-06-10 01:05:00,45.7,35.4,29.74,WNW,298,0.0,0.0,67,0.00,,,0.00,meteohub,2013-06-10 08:05:00,
2013-06-10 01:10:00,45.1,34.9,29.74,WNW,298,0.0,0.0,67,0.00,,,0.00,meteohub,2013-06-10 08:10:00,
2013-06-10 01:15:00,44.6,34.7,29.74,WNW,298,0.0,0.0,68,0.00,,,0.00,meteohub,2013-06-10 08:15:00,
2013-06-10 01:20:00,44.1,34.5,29.74,WNW,298,0.0,0.0,69,0.00,,,0.00,meteohub,2013-06-10 08:20:00,
2013-06-10 01:25:00,43.9,34.7,29.74,WNW,298,0.0,0.0,70,0.00,,,0.00,meteohub,2013-06-10 08:25:00,
2013-06-10 01:30:00,43.7,34.5,29.74,WNW,298,0.0,1.0,70,0.00,,,0.00,meteohub,2013-06-10 08:30:00,
2013-06-10 01:35:00,43.5,34.3,29.74,WNW,298,0.0,1.0,70,0.00,,,0.00,meteohub,2013-06-10 08:35:00,
2013-06-10 01:41:00,43.3,33.8,29.74,WNW,298,0.0,1.0,69,0.00,,,0.00,meteohub,2013-06-10 08:41:00,
2013-06-10 01:46:00,43.3,34.2,29.74,WNW,298,0.0,0.0,70,0.00,,,0.00,meteohub,2013-06-10 08:46:00,
2013-06-10 01:51:00,43.3,34.2,29.74,WNW,298,0.0,0.0,70,0.00,,,0.00,meteohub,2013-06-10 08:51:00,
2013-06-10 01:56:00,43.2,34.0,29.74,WNW,298,0.0,0.0,70,0.00,,,0.00,meteohub,2013-06-10 08:56:00,
2013-06-10 02:01:00,42.8,33.6,29.74,WNW,298,0.0,0.0,70,0.00,,,0.00,meteohub,2013-06-10 09:01:00,
2013-06-10 02:06:00,42.1,33.1,29.74,WNW,298,0.0,0.0,70,0.00,,,0.00,meteohub,2013-06-10 09:06:00,
2013-06-10 02:11:00,41.5,32.9,29.74,WNW,298,0.0,0.0,71,0.00,,,0.00,meteohub,2013-06-10 09:11:00,
2013-06-10 02:16:00,41.2,32.9,29.74,WNW,298,0.0,0.0,72,0.00,,,0.00,meteohub,2013-06-10 09:16:00,
2013-06-10 02:21:00,41.2,33.3,29.74,WNW,298,0.0,0.0,73,0.00,,,0.00,meteohub,2013-06-10 09:21:00,
2013-06-10 02:27:00,41.2,33.4,29.74,WNW,298,0.0,0.0,74,0.00,,,0.00,meteohub,2013-06-10 09:27:00,
2013-06-10 02:32:00,41.0,33.3,29.74,WNW,298,0.0,0.0,74,0.00,,,0.00,meteohub,2013-06-10 09:32:00,
2013-06-10 02:37:00,41.0,33.3,29.74,WNW,298,0.0,0.0,74,0.00,,,0.00,meteohub,2013-06-10 09:37:00,
2013-06-10 02:42:00,40.8,33.1,29.74,WNW,298,0.0,0.0,74,0.00,,,0.00,meteohub,2013-06-10 09:42:00,
2013-06-10 02:47:00,40.5,32.9,29.73,WNW,298,0.0,0.0,74,0.00,,,0.00,meteohub,2013-06-10 09:47:00,
2013-06-10 02:52:00,39.9,32.4,29.73,WNW,298,0.0,0.0,74,0.00,,,0.00,meteohub,2013-06-10 09:52:00,
2013-06-10 02:57:00,39.2,32.0,29.73,WNW,298,0.0,0.0,75,0.00,,,0.00,meteohub,2013-06-10 09:57:00,
2013-06-10 03:03:00,39.0,32.2,29.73,WNW,298,0.0,0.0,76,0.00,,,0.00,meteohub,2013-06-10 10:03:00,
2013-06-10 03:08:00,39.0,32.4,29.73,WNW,298,0.0,0.0,77,0.00,,,0.00,meteohub,2013-06-10 10:08:00,
2013-06-10 03:13:00,38.8,32.5,29.73,WNW,298,0.0,0.0,78,0.00,,,0.00,meteohub,2013-06-10 10:13:00,
2013-06-10 03:18:00,38.7,32.4,29.73,WNW,298,0.0,0.0,78,0.00,,,0.00,meteohub,2013-06-10 10:18:00,
2013-06-10 03:23:00,38.7,32.0,29.73,WNW,298,0.0,0.0,77,0.00,,,0.00,meteohub,2013-06-10 10:23:00,
2013-06-10 03:28:00,38.3,31.6,29.73,WNW,298,0.0,0.0,77,0.00,,,0.00,meteohub,2013-06-10 10:28:00,
2013-06-10 03:33:00,37.9,31.6,29.73,WNW,298,0.0,0.0,78,0.00,,,0.00,meteohub,2013-06-10 10:33:00,
2013-06-10 03:38:00,37.8,31.8,29.73,WNW,298,0.0,0.0,79,0.00,,,0.00,meteohub,2013-06-10 10:38:00,
2013-06-10 03:43:00,37.6,31.3,29.73,WNW,298,0.0,0.0,78,0.00,,,0.00,meteohub,2013-06-10 10:43:00,
2013-06-10 03:48:00,37.4,31.5,29.73,WNW,298,0.0,0.0,79,0.00,,,0.00,meteohub,2013-06-10 10:48:00,
2013-06-10 03:53:00,37.2,31.3,29.73,WNW,298,0.0,0.0,79,0.00,,,0.00,meteohub,2013-06-10 10:53:00,
2013-06-10 03:59:00,36.9,30.9,29.73,WNW,298,0.0,0.0,79,0.00,,,0.00,meteohub,2013-06-10 10:59:00,
2013-06-10 04:04:00,36.9,30.9,29.73,WNW,298,0.0,0.0,79,0.00,,,0.00,meteohub,2013-06-10 11:04:00,
2013-06-10 04:09:00,36.7,31.1,29.73,WNW,298,0.0,0.0,80,0.00,,,0.00,meteohub,2013-06-10 11:09:00,
2013-06-10 04:14:00,36.3,30.7,29.73,WNW,298,0.0,0.0,80,0.00,,,0.00,meteohub,2013-06-10 11:14:00,
2013-06-10 04:19:00,36.0,30.4,29.73,WNW,298,0.0,0.0,80,0.00,,,0.00,meteohub,2013-06-10 11:19:00,
2013-06-10 04:25:00,35.8,30.6,29.73,WNW,298,0.0,0.0,81,0.00,,,0.00,meteohub,2013-06-10 11:25:00,
2013-06-10 04:30:00,35.8,30.6,29.73,WNW,298,0.0,0.0,81,0.00,,,0.00,meteohub,2013-06-10 11:30:00,
2013-06-10 04:35:00,35.8,30.2,29.73,WNW,298,0.0,0.0,80,0.00,,,0.00,meteohub,2013-06-10 11:35:00,
2013-06-10 04:40:00,35.6,30.4,29.73,WNW,298,0.0,0.0,81,0.00,,,0.00,meteohub,2013-06-10 11:40:00,
2013-06-10 04:45:00,35.4,29.8,29.73,WNW,298,0.0,0.0,80,0.00,,,0.00,meteohub,2013-06-10 11:45:00,
2013-06-10 04:50:00,35.1,29.8,29.73,WNW,298,0.0,1.0,81,0.00,,,0.00,meteohub,2013-06-10 11:50:00,
2013-06-10 04:55:00,34.9,29.7,29.73,WNW,298,0.0,1.0,81,0.00,,,0.00,meteohub,2013-06-10 11:55:00,
2013-06-10 05:00:00,34.7,29.5,29.73,WNW,298,0.0,1.0,81,0.00,,,0.00,meteohub,2013-06-10 12:00:00,
2013-06-10 05:06:00,34.2,28.9,29.73,WNW,298,0.0,0.0,81,0.00,,,0.00,meteohub,2013-06-10 12:06:00,
2013-06-10 05:11:00,34.0,28.8,29.73,WNW,298,0.0,0.0,81,0.00,,,0.00,meteohub,2013-06-10 12:11:00,
2013-06-10 05:16:00,33.8,28.6,29.73,WNW,298,0.0,0.0,81,0.00,,,0.00,meteohub,2013-06-10 12:16:00,
2013-06-10 05:21:00,33.3,28.0,29.73,WNW,298,0.0,0.0,81,0.00,,,0.00,meteohub,2013-06-10 12:21:00,
2013-06-10 05:26:00,32.9,27.7,29.73,WNW,298,0.0,0.0,81,0.00,,,0.00,meteohub,2013-06-10 12:26:00,
2013-06-10 05:31:00,32.7,27.5,29.73,WNW,298,0.0,0.0,81,0.00,,,0.00,meteohub,2013-06-10 12:31:00,
2013-06-10 05:36:00,32.4,27.1,29.73,WNW,298,0.0,0.0,81,0.00,,,0.00,meteohub,2013-06-10 12:36:00,
2013-06-10 05:41:00,32.2,27.3,29.73,WNW,298,0.0,0.0,82,0.00,,,0.00,meteohub,2013-06-10 12:41:00,
2013-06-10 05:46:00,32.2,27.7,29.72,WNW,298,0.0,0.0,83,0.00,,,0.00,meteohub,2013-06-10 12:46:00,
2013-06-10 05:52:00,32.2,27.7,29.72,WNW,298,0.0,0.0,83,0.00,,,0.00,meteohub,2013-06-10 12:52:00,
2013-06-10 05:57:00,32.2,27.9,29.72,WNW,298,0.0,0.0,84,0.00,,,0.00,meteohub,2013-06-10 12:57:00,
2013-06-10 06:02:00,32.4,28.0,29.72,WNW,298,0.0,0.0,84,0.00,,,0.00,meteohub,2013-06-10 13:02:00,
2013-06-10 06:07:00,32.5,28.6,29.72,WNW,298,0.0,0.0,85,0.00,,,0.00,meteohub,2013-06-10 13:07:00,
2013-06-10 06:12:00,32.9,28.9,29.72,WNW,298,0.0,0.0,85,0.00,,,0.00,meteohub,2013-06-10 13:12:00,
2013-06-10 06:18:00,33.3,29.3,29.72,WNW,298,0.0,0.0,85,0.00,,,0.00,meteohub,2013-06-10 13:18:00,
2013-06-10 06:23:00,33.6,29.7,29.72,WNW,298,0.0,1.0,85,0.00,,,0.00,meteohub,2013-06-10 13:23:00,
2013-06-10 06:28:00,34.0,30.2,29.72,WNW,298,0.0,1.0,86,0.00,,,0.00,meteohub,2013-06-10 13:28:00,
2013-06-10 06:33:00,34.5,30.6,29.72,WNW,298,0.0,1.0,85,0.00,,,0.00,meteohub,2013-06-10 13:33:00,
2013-06-10 06:38:00,34.9,30.7,29.72,WNW,298,0.0,1.0,85,0.00,,,0.00,meteohub,2013-06-10 13:38:00,
2013-06-10 06:43:00,35.2,31.1,29.72,WNW,298,0.0,1.0,85,0.00,,,0.00,meteohub,2013-06-10 13:43:00,
2013-06-10 06:48:00,35.8,31.6,29.72,WNW,298,0.0,0.0,85,0.00,,,0.00,meteohub,2013-06-10 13:48:00,
2013-06-10 06:53:00,36.1,32.0,29.72,WNW,298,2.0,2.0,85,0.00,,,0.00,meteohub,2013-06-10 13:53:00,
2013-06-10 06:59:00,36.5,32.2,29.72,WNW,298,0.0,1.0,84,0.00,,,0.00,meteohub,2013-06-10 13:59:00,
2013-06-10 07:04:00,36.9,32.2,29.72,WNW,298,0.0,2.0,83,0.00,,,0.00,meteohub,2013-06-10 14:04:00,
2013-06-10 07:09:00,37.4,33.1,29.72,WNW,298,0.0,2.0,84,0.00,,,0.00,meteohub,2013-06-10 14:09:00,
2013-06-10 07:14:00,37.8,33.1,29.71,WNW,298,0.0,1.0,83,0.00,,,0.00,meteohub,2013-06-10 14:14:00,
2013-06-10 07:19:00,38.3,32.9,29.71,WNW,298,0.0,1.0,81,0.00,,,0.00,meteohub,2013-06-10 14:19:00,
2013-06-10 07:24:00,38.7,33.6,29.71,WNW,298,0.0,1.0,82,0.00,,,0.00,meteohub,2013-06-10 14:24:00,
2013-06-10 07:29:00,39.4,34.0,29.71,West,265,0.0,1.0,81,0.00,,,0.00,meteohub,2013-06-10 14:29:00,
2013-06-10 07:34:00,40.3,34.5,29.71,SW,226,0.0,1.0,80,0.00,,,0.00,meteohub,2013-06-10 14:34:00,
2013-06-10 07:40:00,41.4,35.4,29.71,SW,225,0.0,2.0,79,0.00,,,0.00,meteohub,2013-06-10 14:40:00,
2013-06-10 07:45:00,42.3,35.6,29.71,SW,223,0.0,3.0,77,0.00,,,0.00,meteohub,2013-06-10 14:45:00,
2013-06-10 07:50:00,43.2,36.5,29.71,SW,228,0.0,3.0,77,0.00,,,0.00,meteohub,2013-06-10 14:50:00,
2013-06-10 07:55:00,44.4,36.7,29.71,SW,232,0.0,3.0,74,0.00,,,0.00,meteohub,2013-06-10 14:55:00,
2013-06-10 08:01:00,45.5,37.0,29.71,South,188,0.0,3.0,72,0.00,,,0.00,meteohub,2013-06-10 15:01:00,
2013-06-10 08:06:00,46.4,37.6,29.71,South,190,0.0,4.0,71,0.00,,,0.00,meteohub,2013-06-10 15:06:00,
2013-06-10 08:12:00,47.3,37.9,29.71,SSW,204,0.0,4.0,70,0.00,,,0.00,meteohub,2013-06-10 15:12:00,
2013-06-10 08:17:00,48.2,37.8,29.71,SSW,192,0.0,4.0,67,0.00,,,0.00,meteohub,2013-06-10 15:17:00,
2013-06-10 08:22:00,49.3,39.2,29.71,SSW,196,0.0,3.0,68,0.00,,,0.00,meteohub,2013-06-10 15:22:00,
2013-06-10 08:27:00,50.4,38.7,29.71,SW,236,3.0,3.0,64,0.00,,,0.00,meteohub,2013-06-10 15:27:00,
2013-06-10 08:32:00,51.3,39.0,29.71,WSW,254,0.0,3.0,63,0.00,,,0.00,meteohub,2013-06-10 15:32:00,
2013-06-10 08:37:00,52.2,39.0,29.71,SW,216,0.0,3.0,61,0.00,,,0.00,meteohub,2013-06-10 15:37:00,
2013-06-10 08:43:00,53.2,39.2,29.71,SW,216,0.0,3.0,59,0.00,,,0.00,meteohub,2013-06-10 15:43:00,
2013-06-10 08:48:00,54.1,39.2,29.71,SW,217,0.0,3.0,57,0.00,,,0.00,meteohub,2013-06-10 15:48:00,
2013-06-10 08:53:00,54.7,40.1,29.71,SW,217,0.0,3.0,58,0.00,,,0.00,meteohub,2013-06-10 15:53:00,
2013-06-10 08:58:00,55.0,38.7,29.71,SW,218,0.0,3.0,54,0.00,,,0.00,meteohub,2013-06-10 15:58:00,
2013-06-10 09:04:00,54.9,37.9,29.70,SW,225,0.0,3.0,53,0.00,,,0.00,meteohub,2013-06-10 16:04:00,
2013-06-10 09:09:00,55.6,38.1,29.70,SW,225,0.0,3.0,52,0.00,,,0.00,meteohub,2013-06-10 16:09:00,
2013-06-10 09:14:00,56.3,40.8,29.70,SW,227,0.0,3.0,56,0.00,,,0.00,meteohub,2013-06-10 16:14:00,
2013-06-10 09:19:00,57.4,40.8,29.70,SW,227,0.0,3.0,54,0.00,,,0.00,meteohub,2013-06-10 16:19:00,
2013-06-10 09:24:00,58.6,39.6,29.70,SW,227,0.0,3.0,49,0.00,,,0.00,meteohub,2013-06-10 16:24:00,
2013-06-10 09:29:00,59.7,37.8,29.70,SSW,210,0.0,1.0,44,0.00,,,0.00,meteohub,2013-06-10 16:29:00,
2013-06-10 09:34:00,60.6,39.2,29.70,SSW,210,0.0,2.0,45,0.00,,,0.00,meteohub,2013-06-10 16:34:00,
2013-06-10 09:40:00,61.3,38.7,29.70,NNW,334,0.0,2.0,43,0.00,,,0.00,meteohub,2013-06-10 16:40:00,
2013-06-10 09:45:00,61.9,37.9,29.69,NNW,334,0.0,2.0,41,0.00,,,0.00,meteohub,2013-06-10 16:45:00,
2013-06-10 09:50:00,62.8,38.1,29.69,NNW,334,0.0,2.0,40,0.00,,,0.00,meteohub,2013-06-10 16:50:00,
2013-06-10 09:55:00,63.9,38.3,29.69,NNW,334,0.0,1.0,39,0.00,,,0.00,meteohub,2013-06-10 16:55:00,
2013-06-10 10:00:00,64.8,38.5,29.69,NW,319,0.0,1.0,38,0.00,,,0.00,meteohub,2013-06-10 17:00:00,
2013-06-10 10:06:00,65.7,37.9,29.69,SSW,205,0.0,4.0,36,0.00,,,0.00,meteohub,2013-06-10 17:06:00,
2013-06-10 10:11:00,65.7,37.9,29.69,NW,313,0.0,4.0,36,0.00,,,0.00,meteohub,2013-06-10 17:11:00,
2013-06-10 10:16:00,65.7,40.6,29.69,NW,313,0.0,4.0,40,0.00,,,0.00,meteohub,2013-06-10 17:16:00,
2013-06-10 10:21:00,66.2,38.5,29.69,NW,305,0.0,2.0,36,0.00,,,0.00,meteohub,2013-06-10 17:21:00,
2013-06-10 10:26:00,66.9,39.7,29.69,NW,305,0.0,1.0,37,0.00,,,0.00,meteohub,2013-06-10 17:26:00,
2013-06-10 10:31:00,67.6,39.0,29.68,NW,306,1.0,1.0,35,0.00,,,0.00,meteohub,2013-06-10 17:31:00,
2013-06-10 10:36:00,67.3,37.9,29.68,NW,306,0.0,2.0,34,0.00,,,0.00,meteohub,2013-06-10 17:36:00,
2013-06-10 10:41:00,67.3,40.1,29.68,NW,306,0.0,2.0,37,0.00,,,0.00,meteohub,2013-06-10 17:41:00,
2013-06-10 10:47:00,67.8,41.9,29.68,WNW,291,0.0,2.0,39,0.00,,,0.00,meteohub,2013-06-10 17:47:00,
2013-06-10 10:52:00,68.9,37.0,29.68,ENE,69,0.0,1.0,31,0.00,,,0.00,meteohub,2013-06-10 17:52:00,
2013-06-10 10:57:00,69.8,34.3,29.68,ENE,58,0.0,2.0,27,0.00,,,0.00,meteohub,2013-06-10 17:57:00,
2013-06-10 11:02:00,70.2,36.3,29.67,South,170,0.0,3.0,29,0.00,,,0.00,meteohub,2013-06-10 18:02:00,
2013-06-10 11:08:00,71.1,37.2,29.67,South,170,0.0,3.0,29,0.00,,,0.00,meteohub,2013-06-10 18:08:00,
2013-06-10 11:13:00,71.6,36.7,29.67,NW,314,2.0,3.0,28,0.00,,,0.00,meteohub,2013-06-10 18:13:00,
2013-06-10 11:18:00,70.9,37.0,29.67,NNE,32,0.0,4.0,29,0.00,,,0.00,meteohub,2013-06-10 18:18:00,
2013-06-10 11:23:00,71.4,36.5,29.67,NNW,338,0.0,4.0,28,0.00,,,0.00,meteohub,2013-06-10 18:23:00,
2013-06-10 11:28:00,72.1,33.3,29.67,WNW,300,0.0,5.0,24,0.00,,,0.00,meteohub,2013-06-10 18:28:00,
2013-06-10 11:34:00,72.7,30.4,29.67,NW,313,0.0,5.0,21,0.00,,,0.00,meteohub,2013-06-10 18:34:00,
2013-06-10 11:39:00,72.9,28.0,29.67,NW,304,2.0,5.0,19,0.00,,,0.00,meteohub,2013-06-10 18:39:00,
2013-06-10 11:44:00,73.8,30.2,29.67,SW,229,0.0,5.0,20,0.00,,,0.00,meteohub,2013-06-10 18:44:00,
2013-06-10 11:49:00,74.1,32.7,29.67,North,0,1.0,4.0,22,0.00,,,0.00,meteohub,2013-06-10 18:49:00,
2013-06-10 11:54:00,74.5,33.1,29.67,North,0,0.0,3.0,22,0.00,,,0.00,meteohub,2013-06-10 18:54:00,
2013-06-10 11:59:00,74.8,33.4,29.66,North,0,0.0,3.0,22,0.00,,,0.00,meteohub,2013-06-10 18:59:00,
2013-06-10 12:04:00,75.6,35.1,29.66,NNW,344,1.0,3.0,23,0.00,,,0.00,meteohub,2013-06-10 19:04:00,
2013-06-10 12:10:00,76.1,34.5,29.66,WNW,299,0.0,5.0,22,0.00,,,0.00,meteohub,2013-06-10 19:10:00,
2013-06-10 12:15:00,75.7,35.2,29.66,WNW,298,4.0,5.0,23,0.00,,,0.00,meteohub,2013-06-10 19:15:00,
2013-06-10 12:20:00,75.4,32.7,29.66,ENE,67,0.0,5.0,21,0.00,,,0.00,meteohub,2013-06-10 19:20:00,
2013-06-10 12:25:00,75.4,36.0,29.66,NNE,16,0.0,6.0,24,0.00,,,0.00,meteohub,2013-06-10 19:25:00,
2013-06-10 12:30:00,75.4,36.0,29.65,NW,319,1.0,6.0,24,0.00,,,0.00,meteohub,2013-06-10 19:30:00,
2013-06-10 12:35:00,75.6,32.9,29.65,NW,313,1.0,6.0,21,0.00,,,0.00,meteohub,2013-06-10 19:35:00,
2013-06-10 12:40:00,75.7,32.9,29.65,NW,313,0.0,7.0,21,0.00,,,0.00,meteohub,2013-06-10 19:40:00,
2013-06-10 12:45:00,75.9,35.4,29.65,North,0,0.0,7.0,23,0.00,,,0.00,meteohub,2013-06-10 19:45:00,
2013-06-10 12:51:00,76.3,35.8,29.65,ENE,71,0.0,4.0,23,0.00,,,0.00,meteohub,2013-06-10 19:51:00,
2013-06-10 12:56:00,75.6,36.1,29.65,East,80,2.0,9.0,24,0.00,,,0.00,meteohub,2013-06-10 19:56:00,
2013-06-10 13:01:00,75.7,34.2,29.65,WNW,296,3.0,9.0,22,0.00,,,0.00,meteohub,2013-06-10 20:01:00,
2013-06-10 13:06:00,75.7,34.2,29.65,NNW,344,0.0,6.0,22,0.00,,,0.00,meteohub,2013-06-10 20:06:00,
2013-06-10 13:11:00,76.6,34.9,29.65,NE,44,0.0,6.0,22,0.00,,,0.00,meteohub,2013-06-10 20:11:00,
2013-06-10 13:16:00,77.4,36.7,29.64,NNE,27,1.0,6.0,23,0.00,,,0.00,meteohub,2013-06-10 20:16:00,
2013-06-10 13:22:00,77.4,34.3,29.64,East,79,3.0,11.0,21,0.00,,,0.00,meteohub,2013-06-10 20:22:00,
2013-06-10 13:27:00,77.4,34.3,29.64,NE,36,5.0,11.0,21,0.00,,,0.00,meteohub,2013-06-10 20:27:00,
2013-06-10 13:32:00,77.2,35.4,29.64,NW,321,4.0,11.0,22,0.00,,,0.00,meteohub,2013-06-10 20:32:00,
2013-06-10 13:37:00,77.9,36.0,29.64,North,5,7.0,9.0,22,0.00,,,0.00,meteohub,2013-06-10 20:37:00,
2013-06-10 13:43:00,78.1,37.2,29.64,NW,309,0.0,8.0,23,0.00,,,0.00,meteohub,2013-06-10 20:43:00,
2013-06-10 13:48:00,78.4,37.6,29.64,NNE,19,1.0,8.0,23,0.00,,,0.00,meteohub,2013-06-10 20:48:00,
2013-06-10 13:53:00,78.8,35.4,29.64,NNE,24,4.0,8.0,21,0.00,,,0.00,meteohub,2013-06-10 20:53:00,
2013-06-10 13:58:00,78.8,37.8,29.64,WNW,286,4.0,8.0,23,0.00,,,0.00,meteohub,2013-06-10 20:58:00,
2013-06-10 14:03:00,78.8,36.7,29.63,NW,325,5.0,8.0,22,0.00,,,0.00,meteohub,2013-06-10 21:03:00,
2013-06-10 14:09:00,78.8,37.8,29.63,North,0,0.0,8.0,23,0.00,,,0.00,meteohub,2013-06-10 21:09:00,
2013-06-10 14:14:00,78.8,38.8,29.63,North,11,2.0,9.0,24,0.00,,,0.00,meteohub,2013-06-10 21:14:00,
2013-06-10 14:19:00,77.2,35.4,29.63,NNW,330,1.0,9.0,22,0.00,,,0.00,meteohub,2013-06-10 21:19:00,
2013-06-10 14:24:00,77.0,36.3,29.63,North,5,0.0,12.0,23,0.00,,,0.00,meteohub,2013-06-10 21:24:00,
2013-06-10 14:29:00,77.4,36.7,29.62,North,355,1.0,12.0,23,0.00,,,0.00,meteohub,2013-06-10 21:29:00,
2013-06-10 14:34:00,77.4,36.7,29.62,NNE,22,1.0,12.0,23,0.00,,,0.00,meteohub,2013-06-10 21:34:00,
2013-06-10 14:40:00,77.4,38.7,29.62,NNE,18,8.0,12.0,25,0.00,,,0.00,meteohub,2013-06-10 21:40:00,
2013-06-10 14:45:00,77.7,36.9,29.62,NNE,30,1.0,12.0,23,0.00,,,0.00,meteohub,2013-06-10 21:45:00,
2013-06-10 14:50:00,77.9,39.2,29.62,NE,44,0.0,8.0,25,0.00,,,0.00,meteohub,2013-06-10 21:50:00,
2013-06-10 14:55:00,77.9,36.0,29.62,NNW,341,0.0,7.0,22,0.00,,,0.00,meteohub,2013-06-10 21:55:00,
2013-06-10 15:00:00,78.1,39.4,29.62,WNW,292,4.0,6.0,25,0.00,,,0.00,meteohub,2013-06-10 22:00:00,
2013-06-10 15:06:00,78.8,38.8,29.62,North,355,0.0,7.0,24,0.00,,,0.00,meteohub,2013-06-10 22:06:00,
2013-06-10 15:11:00,79.0,40.1,29.62,NNE,18,2.0,7.0,25,0.00,,,0.00,meteohub,2013-06-10 22:11:00,
2013-06-10 15:16:00,78.8,35.4,29.62,North,355,0.0,7.0,21,0.00,,,0.00,meteohub,2013-06-10 22:16:00,
2013-06-10 15:22:00,78.1,39.4,29.62,North,5,1.0,5.0,25,0.00,,,0.00,meteohub,2013-06-10 22:22:00,
2013-06-10 15:27:00,77.9,37.0,29.62,North,5,3.0,5.0,23,0.00,,,0.00,meteohub,2013-06-10 22:27:00,
2013-06-10 15:32:00,77.4,37.8,29.62,NNE,22,4.0,8.0,24,0.00,,,0.00,meteohub,2013-06-10 22:32:00,
2013-06-10 15:37:00,77.4,38.7,29.62,WNW,303,0.0,9.0,25,0.00,,,0.00,meteohub,2013-06-10 22:37:00,
2013-06-10 15:42:00,77.5,38.8,29.62,NW,306,0.0,9.0,25,0.00,,,0.00,meteohub,2013-06-10 22:42:00,
2013-06-10 15:47:00,77.9,39.2,29.63,North,5,0.0,9.0,25,0.00,,,0.00,meteohub,2013-06-10 22:47:00,
2013-06-10 15:53:00,78.1,38.3,29.63,NE,42,1.0,8.0,24,0.00,,,0.00,meteohub,2013-06-10 22:53:00,
2013-06-10 15:58:00,77.5,37.8,29.63,NW,316,0.0,8.0,24,0.00,,,0.00,meteohub,2013-06-10 22:58:00,
2013-06-10 16:03:00,78.1,39.4,29.62,ENE,61,0.0,8.0,25,0.00,,,0.00,meteohub,2013-06-10 23:03:00,
2013-06-10 16:08:00,78.1,39.4,29.62,NNE,30,1.0,8.0,25,0.00,,,0.00,meteohub,2013-06-10 23:08:00,
2013-06-10 16:13:00,78.1,39.4,29.62,WSW,251,1.0,6.0,25,0.00,,,0.00,meteohub,2013-06-10 23:13:00,
2013-06-10 16:18:00,77.9,40.3,29.62,North,355,7.0,7.0,26,0.00,,,0.00,meteohub,2013-06-10 23:18:00,
2013-06-10 16:23:00,77.5,38.8,29.62,North,0,1.0,6.0,25,0.00,,,0.00,meteohub,2013-06-10 23:23:00,
2013-06-10 16:28:00,77.2,38.7,29.62,NNE,21,2.0,9.0,25,0.00,,,0.00,meteohub,2013-06-10 23:28:00,
2013-06-10 16:34:00,77.0,38.5,29.63,NE,44,0.0,9.0,25,0.00,,,0.00,meteohub,2013-06-10 23:34:00,
2013-06-10 16:39:00,76.8,38.3,29.63,NNE,14,1.0,7.0,25,0.00,,,0.00,meteohub,2013-06-10 23:39:00,
2013-06-10 16:44:00,76.5,36.9,29.63,North,5,5.0,10.0,24,0.00,,,0.00,meteohub,2013-06-10 23:44:00,
2013-06-10 16:49:00,76.3,36.9,29.63,North,9,0.0,10.0,24,0.00,,,0.00,meteohub,2013-06-10 23:49:00,
2013-06-10 16:55:00,76.3,37.8,29.63,NNE,24,1.0,10.0,25,0.00,,,0.00,meteohub,2013-06-10 23:55:00,
2013-06-10 17:00:00,76.5,39.0,29.62,North,5,1.0,10.0,26,0.00,,,0.00,meteohub,2013-06-11 00:00:00,
2013-06-10 17:05:00,76.5,37.9,29.62,NW,322,4.0,10.0,25,0.00,,,0.00,meteohub,2013-06-11 00:05:00,
2013-06-10 17:10:00,76.5,37.9,29.62,NNW,338,1.0,10.0,25,0.00,,,0.00,meteohub,2013-06-11 00:10:00,
2013-06-10 17:15:00,76.5,37.9,29.63,NNE,33,1.0,10.0,25,0.00,,,0.00,meteohub,2013-06-11 00:15:00,
2013-06-10 17:20:00,76.5,39.0,29.63,NW,314,1.0,8.0,26,0.00,,,0.00,meteohub,2013-06-11 00:20:00,
2013-06-10 17:25:00,76.5,39.0,29.63,WNW,302,0.0,8.0,26,0.00,,,0.00,meteohub,2013-06-11 00:25:00,
2013-06-10 17:30:00,76.8,37.2,29.62,WNW,292,0.0,8.0,24,0.00,,,0.00,meteohub,2013-06-11 00:30:00,
2013-06-10 17:35:00,76.8,39.2,29.62,NW,306,1.0,6.0,26,0.00,,,0.00,meteohub,2013-06-11 00:35:00,
2013-06-10 17:40:00,76.3,37.8,29.62,WNW,301,1.0,5.0,25,0.00,,,0.00,meteohub,2013-06-11 00:40:00,
2013-06-10 17:45:00,75.9,38.5,29.62,WNW,300,5.0,5.0,26,0.00,,,0.00,meteohub,2013-06-11 00:45:00,
2013-06-10 17:50:00,75.4,38.1,29.62,WNW,297,0.0,6.0,26,0.00,,,0.00,meteohub,2013-06-11 00:50:00,
2013-06-10 17:56:00,75.4,37.0,29.62,WNW,302,0.0,6.0,25,0.00,,,0.00,meteohub,2013-06-11 00:56:00,
2013-06-10 18:01:00,75.0,38.7,29.63,WNW,292,0.0,6.0,27,0.00,,,0.00,meteohub,2013-06-11 01:01:00,
2013-06-10 18:06:00,75.0,38.7,29.63,WNW,292,0.0,4.0,27,0.00,,,0.00,meteohub,2013-06-11 01:06:00,
2013-06-10 18:11:00,75.2,38.8,29.63,NNE,13,0.0,4.0,27,0.00,,,0.00,meteohub,2013-06-11 01:11:00,
2013-06-10 18:16:00,75.2,37.9,29.64,WNW,302,0.0,5.0,26,0.00,,,0.00,meteohub,2013-06-11 01:16:00,
2013-06-10 18:21:00,74.7,39.4,29.64,WNW,302,2.0,5.0,28,0.00,,,0.00,meteohub,2013-06-11 01:21:00,
2013-06-10 18:26:00,74.1,37.9,29.64,NNW,333,0.0,5.0,27,0.00,,,0.00,meteohub,2013-06-11 01:26:00,
2013-06-10 18:32:00,73.4,36.3,29.64,NW,322,0.0,6.0,26,0.00,,,0.00,meteohub,2013-06-11 01:32:00,
2013-06-10 18:37:00,72.9,38.7,29.64,NW,317,2.0,6.0,29,0.00,,,0.00,meteohub,2013-06-11 01:37:00,
2013-06-10 18:42:00,72.7,37.6,29.64,NW,325,2.0,6.0,28,0.00,,,0.00,meteohub,2013-06-11 01:42:00,
2013-06-10 18:47:00,72.5,37.4,29.64,NW,313,0.0,4.0,28,0.00,,,0.00,meteohub,2013-06-11 01:47:00,
2013-06-10 18:52:00,72.0,37.9,29.64,SSW,209,0.0,5.0,29,0.00,,,0.00,meteohub,2013-06-11 01:52:00,
2013-06-10 18:57:00,71.6,37.6,29.64,SSE,168,2.0,5.0,29,0.00,,,0.00,meteohub,2013-06-11 01:57:00,
2013-06-10 19:02:00,71.2,38.1,29.65,SSW,213,3.0,5.0,30,0.00,,,0.00,meteohub,2013-06-11 02:02:00,
2013-06-10 19:08:00,70.7,37.8,29.65,WSW,242,0.0,3.0,30,0.00,,,0.00,meteohub,2013-06-11 02:08:00,
2013-06-10 19:13:00,69.6,37.6,29.65,SW,225,1.0,3.0,31,0.00,,,0.00,meteohub,2013-06-11 02:13:00,
2013-06-10 19:18:00,68.7,37.6,29.65,WSW,247,1.0,7.0,32,0.00,,,0.00,meteohub,2013-06-11 02:18:00,
2013-06-10 19:23:00,68.2,37.9,29.65,South,187,2.0,7.0,33,0.00,,,0.00,meteohub,2013-06-11 02:23:00,
2013-06-10 19:28:00,67.5,36.5,29.65,WSW,242,0.0,5.0,32,0.00,,,0.00,meteohub,2013-06-11 02:28:00,
2013-06-10 19:33:00,67.1,37.0,29.66,WSW,256,0.0,4.0,33,0.00,,,0.00,meteohub,2013-06-11 02:33:00,
2013-06-10 19:38:00,66.6,36.5,29.66,WSW,249,0.0,6.0,33,0.00,,,0.00,meteohub,2013-06-11 02:38:00,
2013-06-10 19:44:00,66.0,36.9,29.66,West,275,0.0,6.0,34,0.00,,,0.00,meteohub,2013-06-11 02:44:00,
2013-06-10 19:49:00,65.5,37.8,29.66,SSW,193,0.0,3.0,36,0.00,,,0.00,meteohub,2013-06-11 02:49:00,
2013-06-10 19:54:00,64.9,36.5,29.66,South,184,2.0,7.0,35,0.00,,,0.00,meteohub,2013-06-11 02:54:00,
2013-06-10 19:59:00,64.4,37.6,29.66,South,190,1.0,7.0,37,0.00,,,0.00,meteohub,2013-06-11 02:59:00,
2013-06-10 20:04:00,63.9,37.8,29.67,South,190,0.0,7.0,38,0.00,,,0.00,meteohub,2013-06-11 03:04:00,
2013-06-10 20:09:00,63.5,37.4,29.67,SSW,209,0.0,3.0,38,0.00,,,0.00,meteohub,2013-06-11 03:09:00,
2013-06-10 20:14:00,62.8,37.4,29.68,SSW,194,0.0,3.0,39,0.00,,,0.00,meteohub,2013-06-11 03:14:00,
2013-06-10 20:19:00,62.1,36.9,29.68,SSW,194,0.0,4.0,39,0.00,,,0.00,meteohub,2013-06-11 03:19:00,
2013-06-10 20:25:00,61.5,37.6,29.68,SSW,194,0.0,4.0,41,0.00,,,0.00,meteohub,2013-06-11 03:25:00,
2013-06-10 20:30:00,61.0,37.8,29.68,SSW,194,1.0,3.0,42,0.00,,,0.00,meteohub,2013-06-11 03:30:00,
2013-06-10 20:35:00,60.6,36.7,29.68,SSW,194,0.0,2.0,41,0.00,,,0.00,meteohub,2013-06-11 03:35:00,
2013-06-10 20:40:00,60.1,36.9,29.68,SSW,194,0.0,3.0,42,0.00,,,0.00,meteohub,2013-06-11 03:40:00,
2013-06-10 20:45:00,59.5,36.3,29.69,SSW,207,1.0,3.0,42,0.00,,,0.00,meteohub,2013-06-11 03:45:00,
2013-06-10 20:50:00,59.0,35.2,29.69,SSW,202,0.0,3.0,41,0.00,,,0.00,meteohub,2013-06-11 03:50:00,
2013-06-10 20:56:00,58.6,36.1,29.69,SW,221,0.0,5.0,43,0.00,,,0.00,meteohub,2013-06-11 03:56:00,
2013-06-10 21:01:00,58.1,36.3,29.69,WSW,252,0.0,5.0,44,0.00,,,0.00,meteohub,2013-06-11 04:01:00,
2013-06-10 21:02:00,58.1,36.3,29.69,WSW,252,1.0,5.0,44,0.00,,,0.00,meteohub,2013-06-11 04:02:00,
2013-06-10 21:04:00,57.9,36.1,29.69,WSW,252,1.0,5.0,44,0.00,,,0.00,meteohub,2013-06-11 04:04:00,
2013-06-10 21:05:00,57.9,36.1,29.69,South,189,0.0,5.0,44,0.00,,,0.00,meteohub,2013-06-11 04:05:00,
2013-06-10 21:10:00,57.4,35.6,29.69,South,189,0.0,4.0,44,0.00,,,0.00,meteohub,2013-06-11 04:10:00,
2013-06-10 21:15:00,57.0,35.2,29.70,SSE,168,0.0,4.0,44,0.00,,,0.00,meteohub,2013-06-11 04:15:00,
2013-06-10 21:20:00,56.5,35.4,29.70,South,171,0.0,4.0,45,0.00,,,0.00,meteohub,2013-06-11 04:20:00,
2013-06-10 21:25:00,55.8,35.2,29.70,South,171,0.0,4.0,46,0.00,,,0.00,meteohub,2013-06-11 04:25:00,
2013-06-10 21:31:00,55.2,35.2,29.71,South,171,0.0,3.0,47,0.00,,,0.00,meteohub,2013-06-11 04:31:00,
2013-06-10 21:36:00,54.7,35.4,29.71,South,171,0.0,1.0,48,0.00,,,0.00,meteohub,2013-06-11 04:36:00,
2013-06-10 21:41:00,54.3,35.6,29.71,South,187,0.0,1.0,49,0.00,,,0.00,meteohub,2013-06-11 04:41:00,
2013-06-10 21:47:00,54.0,35.8,29.72,SSW,196,1.0,5.0,50,0.00,,,0.00,meteohub,2013-06-11 04:47:00,
2013-06-10 21:52:00,53.8,36.0,29.72,SSW,196,0.0,5.0,51,0.00,,,0.00,meteohub,2013-06-11 04:52:00,
2013-06-10 21:57:00,53.6,36.3,29.72,SSW,203,0.0,5.0,52,0.00,,,0.00,meteohub,2013-06-11 04:57:00,
2013-06-10 22:02:00,53.4,36.1,29.73,South,188,0.0,4.0,52,0.00,,,0.00,meteohub,2013-06-11 05:02:00,
2013-06-10 22:07:00,53.2,36.5,29.73,SSW,193,0.0,4.0,53,0.00,,,0.00,meteohub,2013-06-11 05:07:00,
2013-06-10 22:12:00,53.1,36.9,29.73,South,176,0.0,4.0,54,0.00,,,0.00,meteohub,2013-06-11 05:12:00,
2013-06-10 22:17:00,52.9,37.0,29.73,South,190,0.0,4.0,55,0.00,,,0.00,meteohub,2013-06-11 05:17:00,
2013-06-10 22:22:00,52.7,37.0,29.73,South,190,0.0,5.0,55,0.00,,,0.00,meteohub,2013-06-11 05:22:00,
2013-06-10 22:27:00,52.3,37.0,29.73,South,190,0.0,5.0,56,0.00,,,0.00,meteohub,2013-06-11 05:27:00,
2013-06-10 22:33:00,52.0,36.7,29.73,SSW,196,0.0,5.0,56,0.00,,,0.00,meteohub,2013-06-11 05:33:00,
2013-06-10 22:38:00,51.6,36.9,29.73,SSW,196,0.0,3.0,57,0.00,,,0.00,meteohub,2013-06-11 05:38:00,
2013-06-10 22:43:00,51.3,37.0,29.73,East,86,0.0,2.0,58,0.00,,,0.00,meteohub,2013-06-11 05:43:00,
2013-06-10 22:48:00,51.1,36.9,29.73,SSW,200,0.0,2.0,58,0.00,,,0.00,meteohub,2013-06-11 05:48:00,
2013-06-10 22:53:00,50.7,36.9,29.73,SSW,206,0.0,3.0,59,0.00,,,0.00,meteohub,2013-06-11 05:53:00,
2013-06-10 22:58:00,50.4,37.0,29.73,SSE,148,0.0,4.0,60,0.00,,,0.00,meteohub,2013-06-11 05:58:00,
2013-06-10 23:03:00,50.2,36.9,29.74,SSE,148,0.0,4.0,60,0.00,,,0.00,meteohub,2013-06-11 06:03:00,
2013-06-10 23:09:00,50.0,37.0,29.74,South,180,0.0,4.0,61,0.00,,,0.00,meteohub,2013-06-11 06:09:00,
2013-06-10 23:14:00,49.8,36.9,29.74,South,183,0.0,4.0,61,0.00,,,0.00,meteohub,2013-06-11 06:14:00,
2013-06-10 23:19:00,49.5,37.0,29.73,South,183,0.0,4.0,62,0.00,,,0.00,meteohub,2013-06-11 06:19:00,
2013-06-10 23:24:00,49.3,36.9,29.73,SE,142,0.0,3.0,62,0.00,,,0.00,meteohub,2013-06-11 06:24:00,
2013-06-10 23:29:00,48.9,36.9,29.73,South,173,0.0,3.0,63,0.00,,,0.00,meteohub,2013-06-11 06:29:00,
2013-06-10 23:34:00,48.7,36.7,29.73,South,173,0.0,3.0,63,0.00,,,0.00,meteohub,2013-06-11 06:34:00,
2013-06-10 23:39:00,48.4,36.7,29.73,South,187,0.0,4.0,64,0.00,,,0.00,meteohub,2013-06-11 06:39:00,
2013-06-10 23:44:00,48.2,36.5,29.74,South,187,0.0,4.0,64,0.00,,,0.00,meteohub,2013-06-11 06:44:00,
2013-06-10 23:49:00,48.0,36.9,29.74,South,187,0.0,4.0,65,0.00,,,0.00,meteohub,2013-06-11 06:49:00,
2013-06-10 23:55:00,47.7,36.5,29.74,South,188,0.0,2.0,65,0.00,,,0.00,meteohub,2013-06-11 06:55:00,